Vero Beach, FL

3:54 AM EDT on July 27, 2017 (GMT -0400)
Vero Beach Municipal

Weather History for KVRB - June, 2013

Change the Weather History Date:

Wednesday, June 5, 2013

  Actual Average Record
Temperature  
Mean Temperature 80 °F 79 °F  
Max Temperature 85 °F 87 °F 98 °F (1998)
Min Temperature 75 °F 71 °F 65 °F (1984)
Degree Days  
Heating Degree Days 0 0  
Month to date heating degree days 0 0  
Since 1 June heating degree days 0 0  
Since 1 July heating degree days 398 456  
Cooling Degree Days 15 14  
Month to date cooling degree days 78 70  
Year to date cooling degree days 985 876  
Since 1 June cooling degree days 78 70  
Growing Degree Days 30 (Base 50)    
Moisture  
Dew Point 75 °F    
Average Humidity 84    
Maximum Humidity 94    
Minimum Humidity 74    
Precipitation  
Precipitation 0.02 in 0.20 in 2.25 in (1991)
Month to date precipitation 0.12 0.98  
Year to date precipitation 15.34 16.35  
Sea Level Pressure  
Sea Level Pressure 29.98 in    
Wind  
Wind Speed 8 mph (ESE)    
Max Wind Speed 14 mph    
Max Gust Speed 18 mph    
Visibility 10 miles    
Events Rain    
T = Trace of Precipitation, MM = Missing Value Source: NWS Daily Summary

Daily Weather History Graph

Daily Weather History Graph

Search for Another Location

Airport or City:

Trip Planner

Search our weather history database for the weather conditions in past years. The results will help you decide how hot, cold, wet, or windy it might be!

Date:

Astronomy

Jun. 05, 2013 Rise Set
Actual Time 6:25 AM EDT 8:15 PM EDT
Civil Twilight 5:59 AM EDT 8:41 PM EDT
Nautical Twilight 5:27 AM EDT 9:13 PM EDT
Astronomical Twilight 4:53 AM EDT 9:46 PM EDT
Moon 4:16 AM EDT (6/5) 5:49 PM EDT (6/5)
Length of Visible Light 14h 42m
Length of Day
13h 49m
Waning Crescent, 8% of the Moon is Illuminated
Jun 5
Waning Crescent
Jun 8
New
Jun 16
First Quarter
Jun 23
Full
Jun 30
Last Quarter

Hourly Weather History & Observations

Time (EDT) Temp. Heat Index Dew Point Humidity Pressure Visibility Wind Dir Wind Speed Gust Speed Precip Events Conditions
12:53 AM 75.9 °F - 73.0 °F 91% 30.03 in 10.0 mi Calm Calm - N/A   Mostly Cloudy
1:53 AM 75.9 °F - 73.9 °F 94% 30.02 in 10.0 mi Calm Calm - N/A   Partly Cloudy
2:53 AM 78.1 °F - 75.0 °F 90% 29.99 in 10.0 mi SE 5.8 mph - N/A   Clear
3:53 AM 77.0 °F - 73.9 °F 90% 29.98 in 10.0 mi SE 4.6 mph - N/A   Scattered Clouds
4:53 AM 77.0 °F - 73.0 °F 88% 29.97 in 10.0 mi ESE 4.6 mph - N/A   Scattered Clouds
5:53 AM 77.0 °F - 73.9 °F 90% 29.96 in 10.0 mi SE 4.6 mph - N/A   Clear
6:53 AM 78.1 °F - 75.0 °F 90% 29.96 in 10.0 mi ESE 5.8 mph - N/A   Clear
7:53 AM 79.0 °F - 75.0 °F 88% 29.99 in 10.0 mi ESE 6.9 mph - 0.00 in Rain Light Rain
8:53 AM 81.0 °F 87.3 °F 75.9 °F 85% 30.00 in 10.0 mi ESE 8.1 mph - 0.00 in   Scattered Clouds
9:53 AM 82.9 °F 90.2 °F 75.0 °F 77% 30.01 in 10.0 mi ESE 9.2 mph - N/A   Mostly Cloudy
10:53 AM 82.9 °F 89.4 °F 73.9 °F 74% 30.02 in 10.0 mi ESE 12.7 mph - N/A   Mostly Cloudy
11:53 AM 82.9 °F 90.2 °F 75.0 °F 77% 30.02 in 10.0 mi ESE 9.2 mph - N/A   Mostly Cloudy
12:53 PM 82.9 °F 90.2 °F 75.0 °F 77% 30.01 in 10.0 mi East 11.5 mph - N/A   Mostly Cloudy
1:53 PM 84.0 °F 92.6 °F 75.9 °F 76% 29.99 in 10.0 mi East 11.5 mph - N/A   Mostly Cloudy
2:53 PM 82.0 °F 87.9 °F 73.9 °F 76% 29.98 in 10.0 mi ESE 13.8 mph 18.4 mph N/A   Overcast
3:53 PM 81.0 °F 86.7 °F 75.0 °F 82% 29.98 in 10.0 mi SE 11.5 mph - N/A   Mostly Cloudy
4:53 PM 80.1 °F 85.1 °F 75.0 °F 85% 29.97 in 10.0 mi ESE 8.1 mph - 0.00 in Rain Light Rain
5:53 PM 80.1 °F 85.1 °F 75.0 °F 85% 29.94 in 10.0 mi East 8.1 mph - 0.00 in   Partly Cloudy
6:53 PM 79.0 °F - 73.0 °F 82% 29.94 in 10.0 mi East 9.2 mph - N/A   Scattered Clouds
7:53 PM 79.0 °F - 75.0 °F 88% 29.94 in 10.0 mi East 9.2 mph - N/A   Clear
8:53 PM 79.0 °F - 75.0 °F 88% 29.93 in 10.0 mi East 10.4 mph - N/A   Clear
9:53 PM 79.0 °F - 75.9 °F 90% 29.95 in 10.0 mi ESE 9.2 mph - N/A   Clear
10:53 PM 79.0 °F - 75.9 °F 90% 29.95 in 10.0 mi ESE 9.2 mph - N/A   Clear
11:53 PM 79.0 °F - 75.9 °F 90% 29.94 in 10.0 mi ESE 8.1 mph - N/A   Clear